• In Deutschland
  • Länderverzeichnis
  • Für 7 Tage
  • Wassertemperatur
  • Satellitenkarten
  • Wetterkarte
  • Widgets
  • user-avatar
    Anmelden

    Stündliche Wetter Lautaro

    Heute, 25 November, Samstag

    Zeit Temperatur Niederschläge Wind Luftdruck Luftfeuchtigkeit
    00:00 +6°C° 0 mm 1 m/S 744 mmHg 94%
    01:00 +6°C° 0 mm 1 m/S 744 mmHg 94%
    02:00 +6°C° 0 mm 1 m/S 744 mmHg 93%
    03:00 +6°C° 0 mm 1 m/S 743 mmHg 93%
    04:00 +6°C° 0 mm 1 m/S 743 mmHg 93%
    05:00 +8°C° 0 mm 1 m/S 743 mmHg 86%
    06:00 +10°C° 0 mm 1 m/S 743 mmHg 79%
    07:00 +12°C° 0 mm 1 m/S 743 mmHg 72%
    08:00 +14°C° 0 mm 2 m/S 743 mmHg 65%
    09:00 +17°C° 0 mm 2 m/S 742 mmHg 59%
    10:00 +19°C° 0 mm 3 m/S 742 mmHg 52%
    11:00 +21°C° 0 mm 3 m/S 741 mmHg 50%
    12:00 +22°C° 0 mm 3 m/S 741 mmHg 47%
    13:00 +24°C° 0 mm 3 m/S 741 mmHg 45%
    14:00 +24°C° 0 mm 3 m/S 740 mmHg 47%
    15:00 +24°C° 0 mm 3 m/S 740 mmHg 50%
    16:00 +22°C° 0 mm 3 m/S 739 mmHg 52%
    17:00 +20°C° 0 mm 3 m/S 739 mmHg 62%
    18:00 +17°C° 0 mm 2 m/S 739 mmHg 72%
    19:00 +15°C° 0 mm 2 m/S 739 mmHg 82%
    20:00 +13°C° 0 mm 2 m/S 739 mmHg 87%
    21:00 +12°C° 0 mm 1 m/S 739 mmHg 92%
    22:00 +11°C° 0 mm 1 m/S 740 mmHg 96%
    23:00 +10°C° 0 mm 1 m/S 739 mmHg 97%

    Morgen, 26 November, Sonntag

    Zeit Temperatur Niederschläge Wind Luftdruck Luftfeuchtigkeit
    00:00 +10°C° 0 mm 1 m/S 739 mmHg 97%
    01:00 +10°C° 0 mm 1 m/S 739 mmHg 97%
    02:00 +10°C° 0 mm 1 m/S 739 mmHg 97%
    03:00 +10°C° 0 mm 1 m/S 739 mmHg 97%
    04:00 +10°C° 0 mm 1 m/S 739 mmHg 97%
    05:00 +11°C° 0 mm 1 m/S 739 mmHg 92%
    06:00 +12°C° 0 mm 1 m/S 739 mmHg 87%
    07:00 +13°C° 0 mm 1 m/S 740 mmHg 82%
    08:00 +15°C° 0 mm 2 m/S 740 mmHg 72%
    09:00 +17°C° 0 mm 2 m/S 740 mmHg 62%
    10:00 +19°C° 0 mm 3 m/S 740 mmHg 52%
    11:00 +20°C° 0 mm 3 m/S 740 mmHg 49%
    12:00 +21°C° 0 mm 3 m/S 740 mmHg 46%
    13:00 +22°C° 0 mm 3 m/S 740 mmHg 43%
    14:00 +22°C° 0 mm 3 m/S 740 mmHg 45%
    15:00 +22°C° 0 mm 3 m/S 740 mmHg 46%
    16:00 +21°C° 0 mm 3 m/S 740 mmHg 48%
    17:00 +19°C° 0 mm 3 m/S 740 mmHg 58%
    18:00 +16°C° 0 mm 2 m/S 741 mmHg 67%
    19:00 +14°C° 0 mm 2 m/S 741 mmHg 77%
    20:00 +12°C° 0 mm 2 m/S 741 mmHg 82%
    21:00 +10°C° 0 mm 2 m/S 742 mmHg 88%
    22:00 +9°C° 0 mm 1 m/S 742 mmHg 93%
    23:00 +9°C° 0 mm 1 m/S 742 mmHg 92%

    übermorgen, 27 November, Montag

    Zeit Temperatur Niederschläge Wind Luftdruck Luftfeuchtigkeit
    00:00 +8°C° 0 mm 1 m/S 741 mmHg 92%
    01:00 +8°C° 0 mm 1 m/S 741 mmHg 91%
    02:00 +7°C° 0 mm 1 m/S 741 mmHg 89%
    03:00 +7°C° 0 mm 1 m/S 741 mmHg 87%
    04:00 +7°C° 0 mm 1 m/S 740 mmHg 84%
    05:00 +9°C° 0 mm 1 m/S 740 mmHg 76%
    06:00 +12°C° 0 mm 1 m/S 740 mmHg 67%
    07:00 +14°C° 0 mm 1 m/S 740 mmHg 59%
    08:00 +18°C° 0 mm 2 m/S 740 mmHg 50%
    09:00 +23°C° 0 mm 2 m/S 739 mmHg 41%
    10:00 +26°C° 0 mm 2 m/S 739 mmHg 32%
    11:00 +28°C° 0 mm 2 m/S 739 mmHg 30%
    12:00 +30°C° 0 mm 2 m/S 738 mmHg 28%
    13:00 +31°C° 0 mm 2 m/S 738 mmHg 25%
    14:00 +31°C° 0 mm 2 m/S 738 mmHg 28%
    15:00 +30°C° 0 mm 2 m/S 737 mmHg 30%
    16:00 +30°C° 0 mm 2 m/S 737 mmHg 32%
    17:00 +26°C° 0 mm 2 m/S 737 mmHg 42%
    18:00 +23°C° 0 mm 2 m/S 737 mmHg 52%
    19:00 +19°C° 0 mm 1 m/S 737 mmHg 61%
    20:00 +18°C° 0 mm 1 m/S 737 mmHg 64%
    21:00 +16°C° 0 mm 1 m/S 737 mmHg 66%
    22:00 +14°C° 0 mm 1 m/S 737 mmHg 68%
    23:00 +14°C° 0 mm 1 m/S 737 mmHg 67%

    28 November, Dienstag

    Zeit Temperatur Niederschläge Wind Luftdruck Luftfeuchtigkeit
    00:00 +13°C° 0 mm 1 m/S 737 mmHg 67%
    01:00 +13°C° 0 mm 1 m/S 737 mmHg 66%
    02:00 +13°C° 0 mm 1 m/S 737 mmHg 65%
    03:00 +12°C° 0 mm 1 m/S 736 mmHg 64%
    04:00 +12°C° 0 mm 1 m/S 736 mmHg 63%
    05:00 +14°C° 0 mm 0 m/S 737 mmHg 58%
    06:00 +17°C° 0 mm 0 m/S 737 mmHg 53%
    07:00 +19°C° 0 mm 0 m/S 737 mmHg 47%
    08:00 +22°C° 0 mm 0 m/S 737 mmHg 42%
    09:00 +27°C° 0 mm 1 m/S 737 mmHg 37%
    10:00 +30°C° 0 mm 1 m/S 737 mmHg 31%
    11:00 +31°C° 0 mm 1 m/S 737 mmHg 30%
    12:00 +32°C° 0 mm 1 m/S 737 mmHg 29%
    13:00 +32°C° 0 mm 2 m/S 737 mmHg 28%
    14:00 +31°C° 0 mm 2 m/S 737 mmHg 31%
    15:00 +30°C° 0 mm 2 m/S 737 mmHg 35%
    16:00 +29°C° 0 mm 3 m/S 737 mmHg 38%
    17:00 +26°C° 0 mm 2 m/S 737 mmHg 48%
    18:00 +21°C° 0 mm 2 m/S 738 mmHg 57%
    19:00 +19°C° 0 mm 1 m/S 738 mmHg 67%
    20:00 +16°C° 0 mm 1 m/S 738 mmHg 72%
    21:00 +14°C° 0 mm 1 m/S 738 mmHg 77%
    22:00 +12°C° 0 mm 1 m/S 738 mmHg 82%
    23:00 +12°C° 0 mm 1 m/S 738 mmHg 82%

    29 November, Mittwoch

    Zeit Temperatur Niederschläge Wind Luftdruck Luftfeuchtigkeit
    00:00 +12°C° 0 mm 1 m/S 738 mmHg 83%
    01:00 +11°C° 0 mm 1 m/S 738 mmHg 84%
    02:00 +10°C° 0 mm 0 m/S 738 mmHg 84%
    03:00 +9°C° 0 mm 0 m/S 739 mmHg 85%
    04:00 +9°C° 0 mm 0 m/S 739 mmHg 85%
    05:00 +12°C° 0 mm 0 m/S 739 mmHg 77%
    06:00 +15°C° 0 mm 1 m/S 740 mmHg 69%
    07:00 +19°C° 0 mm 1 m/S 740 mmHg 61%
    08:00 +21°C° 0 mm 1 m/S 740 mmHg 54%
    09:00 +23°C° 0 mm 1 m/S 740 mmHg 47%
    10:00 +25°C° 0 mm 1 m/S 740 mmHg 40%
    11:00 +26°C° 0 mm 2 m/S 740 mmHg 38%
    12:00 +27°C° 0 mm 2 m/S 740 mmHg 35%
    13:00 +28°C° 0 mm 2 m/S 740 mmHg 33%
    14:00 +27°C° 0 mm 2 m/S 740 mmHg 35%
    15:00 +26°C° 0 mm 2 m/S 740 mmHg 37%
    16:00 +26°C° 0 mm 3 m/S 740 mmHg 39%
    17:00 +23°C° 0 mm 2 m/S 740 mmHg 48%
    18:00 +19°C° 0 mm 2 m/S 740 mmHg 58%
    19:00 +16°C° 0 mm 1 m/S 740 mmHg 68%
    20:00 +14°C° 0 mm 1 m/S 740 mmHg 75%
    21:00 +13°C° 0 mm 1 m/S 740 mmHg 81%
    22:00 +11°C° 0 mm 1 m/S 740 mmHg 88%
    23:00 +11°C° 0 mm 1 m/S 740 mmHg 88%

    30 November, Donnerstag

    Zeit Temperatur Niederschläge Wind Luftdruck Luftfeuchtigkeit
    00:00 +10°C° 0 mm 1 m/S 740 mmHg 89%
    01:00 +10°C° 0 mm 1 m/S 739 mmHg 90%
    02:00 +10°C° 0 mm 1 m/S 739 mmHg 90%
    03:00 +10°C° 0 mm 1 m/S 739 mmHg 90%
    04:00 +10°C° 0 mm 1 m/S 739 mmHg 90%
    05:00 +12°C° 0 mm 1 m/S 739 mmHg 82%
    06:00 +14°C° 0 mm 1 m/S 739 mmHg 75%
    07:00 +16°C° 0 mm 1 m/S 738 mmHg 67%
    08:00 +18°C° 0 mm 2 m/S 738 mmHg 59%
    09:00 +20°C° 0 mm 2 m/S 738 mmHg 50%
    10:00 +24°C° 0 mm 2 m/S 738 mmHg 42%
    11:00 +24°C° 0 mm 3 m/S 738 mmHg 38%
    12:00 +25°C° 0 mm 3 m/S 737 mmHg 35%
    13:00 +26°C° 0 mm 3 m/S 737 mmHg 31%
    14:00 +25°C° 0 mm 3 m/S 737 mmHg 33%
    15:00 +25°C° 0 mm 3 m/S 737 mmHg 35%
    16:00 +24°C° 0 mm 3 m/S 737 mmHg 37%
    17:00 +20°C° 0 mm 3 m/S 737 mmHg 47%
    18:00 +17°C° 0 mm 2 m/S 737 mmHg 56%
    19:00 +14°C° 0 mm 1 m/S 738 mmHg 65%
    20:00 +13°C° 0 mm 1 m/S 738 mmHg 71%
    21:00 +11°C° 0 mm 1 m/S 738 mmHg 77%
    22:00 +10°C° 0 mm 1 m/S 738 mmHg 82%
    23:00 +9°C° 0 mm 1 m/S 738 mmHg 81%
    Mehr zeigen